Temperature
21 20 20 20 25 28 27 27 27 27 27 26 25 25 26 25 25 23 21 20 20 20 19 19 19 19 19 19 19 19 19 19 19 19 19 19 19 19 19 18 18 18 18 18 18 18 18 18 18
20 20 20 24 27 27 27 27 27 27 26 25 25 25 25 24 22 21 20 20 20 20 19 19 19 19 19 19 19 19 19 19 19 19 19 19 19 19 19 19 18 18 18 18 18 18 18 18 18
20 20 23 28 28 27 27 27 27 26 25 25 25 24 24 23 21 21 20 20 20 19 19 19 19 19 19 19 19 19 19 19 19 19 19 19 19 19 19 19 18 18 18 18 18 18 18 18 18
21 23 25 28 27 27 27 27 27 27 25 25 25 24 22 21 21 21 20 20 20 20 19 19 19 19 19 19 19 19 19 19 19 19 19 19 19 18 18 18 18 18 18 18 18 18 18 18 18
22 26 28 28 28 27 28 27 27 27 26 25 25 24 22 21 20 20 20 20 20 20 19 19 19 19 19 19 19 19 19 19 19 19 19 19 18 18 18 18 18 18 18 18 18 18 18 18 18
25 28 29 28 27 28 28 27 27 27 26 25 25 24 22 21 20 20 20 20 20 20 20 19 19 19 19 19 19 19 19 19 19 19 19 19 18 18 18 18 18 18 18 18 18 18 18 18 18
27 29 29 28 28 28 28 27 27 27 26 25 25 24 22 21 21 20 20 20 20 20 20 19 19 19 19 19 19 19 19 19 19 19 19 19 19 18 18 18 18 18 18 18 18 18 18 18 18
26 30 29 29 28 28 28 27 26 26 26 24 24 25 23 21 20 20 20 20 20 20 20 19 19 19 19 19 19 19 19 19 19 19 19 19 18 18 18 18 18 18 18 18 18 18 18 18 18
26 30 29 29 29 28 28 27 26 25 25 24 24 23 22 21 20 21 20 20 20 19 19 19 19 19 19 19 19 19 19 19 19 19 19 18 18 18 18 18 18 18 18 18 18 18 18 18 18
29 29 29 29 29 29 28 28 27 26 26 25 23 22 21 21 21 21 21 20 20 19 19 19 19 19 19 19 19 19 19 18 18 18 18 18 18 18 18 18 18 18 18 18 18 18 18 18 17
29 29 29 29 28 28 28 27 27 27 27 25 24 22 21 21 21 21 21 20 20 19 19 19 19 18 19 19 19 19 18 18 18 18 18 18 18 18 18 18 18 18 18 18 18 17 18 17 17
29 29 28 28 28 28 28 27 27 27 26 24 23 22 22 22 21 21 20 20 20 19 19 19 19 18 18 18 19 19 19 18 18 18 18 18 18 18 18 18 18 18 18 18 18 17 17 17 17
30 29 28 28 28 28 27 27 27 26 25 24 23 22 22 22 21 21 20 20 19 19 19 19 18 18 18 18 18 18 18 18 18 18 18 18 18 18 18 18 18 18 18 18 18 17 17 17 17
29 29 29 29 28 28 28 28 27 25 24 24 23 23 22 22 21 21 20 20 20 19 19 19 18 18 18 18 18 18 18 18 18 18 18 18 18 18 18 18 18 18 18 18 17 17 17 17 17
29 30 30 29 29 28 28 28 27 25 24 24 23 23 22 22 21 21 20 20 20 19 19 19 18 18 18 18 18 18 18 18 18 18 18 18 18 18 18 18 18 18 18 17 17 17 17 17 17
31 31 30 30 29 29 29 28 27 25 25 25 24 23 22 22 21 21 20 20 19 19 19 18 19 18 18 18 18 18 18 18 18 18 18 18 18 18 18 18 18 18 17 17 17 17 17 17 17
31 31 30 30 30 30 30 29 28 26 26 25 24 24 23 22 21 21 20 20 19 19 19 18 18 18 18 18 18 18 18 18 18 18 18 18 18 18 18 18 18 18 18 17 17 17 17 17 17
31 31 30 30 30 30 30 29 28 26 26 26 25 24 23 23 22 21 20 20 19 19 18 18 18 18 18 18 18 18 18 18 18 18 18 18 18 18 18 18 18 18 17 17 17 17 17 17 17
31 31 30 30 30 30 29 29 29 27 27 27 26 25 24 23 22 21 20 20 19 19 19 18 18 18 18 18 18 18 18 18 18 18 18 18 18 18 18 18 18 18 17 17 17 17 17 17 17
31 31 31 30 30 30 29 29 29 28 27 27 26 25 24 23 22 21 21 20 20 19 19 19 19 18 18 18 18 18 18 18 18 18 18 18 18 18 18 18 18 17 18 17 17 17 17 17 17
31 31 31 30 30 30 30 29 29 28 27 26 26 26 25 24 23 22 21 21 20 19 19 19 19 19 19 19 18 18 18 18 18 18 18 18 18 18 18 18 18 18 17 18 17 17 17 17 17
31 31 31 30 30 31 30 30 30 29 28 28 27 26 26 25 24 23 22 21 20 20 20 19 19 19 19 19 18 18 18 18 18 18 18 18 18 18 18 18 18 18 17 18 17 17 17 17 18
31 31 31 31 31 31 31 31 30 29 29 28 28 27 26 25 24 23 22 21 21 20 20 19 19 19 19 19 19 18 18 18 18 18 18 18 18 18 17 18 18 17 18 18 18 18 17 17 17
30 30 30 31 31 30 30 30 30 30 29 29 28 27 26 25 24 23 22 22 21 20 20 20 19 20 19 19 19 19 18 18 18 18 18 18 18 18 17 17 17 17 18 17 17 18 17 17 17
31 31 30 30 30 30 30 30 30 30 30 29 28 27 26 25 24 23 23 22 21 21 20 20 20 20 19 19 19 19 19 18 18 18 18 18 18 18 18 17 17 17 18 18 18 18 17 17 17
31 31 30 29 30 31 30 30 31 30 29 29 28 27 26 25 24 24 23 22 21 21 20 20 20 20 20 20 19 19 19 19 18 18 18 18 18 18 18 17 17 17 17 17 18 17 17 17 17
31 31 32 31 31 30 31 31 31 30 29 29 28 27 26 25 24 24 23 22 21 21 20 20 20 20 20 20 19 19 19 19 18 18 18 18 18 18 18 17 17 17 17 17 17 17 17 17 17
31 31 31 31 29 29 30 30 30 29 29 29 28 27 27 26 25 24 23 22 22 21 20 20 20 20 20 19 19 19 19 19 19 18 18 18 18 18 18 17 17 17 17 17 17 17 17 17 17
30 30 30 30 31 30 30 30 30 29 29 29 28 27 26 26 25 24 23 22 22 21 21 20 20 20 20 19 19 19 19 19 18 18 18 18 18 18 18 17 17 17 17 17 17 17 17 17 17
30 30 30 30 29 30 30 30 30 29 29 28 28 26 26 25 25 24 23 22 22 21 21 20 20 20 20 19 19 19 19 19 18 18 18 18 18 18 18 17 17 17 17 17 17 17 17 17 16
Wind_Speed
11 9 5 3 3 3 9 8 7 6 6 6 6 5 7 8 7 6 5 5 4 5 7 9 8 8 9 9 9 9 9 9 9 8 9 9 9 9 9 10 11 11 12 11 12 12 12 13 13
8 5 4 3 1 7 9 7 8 8 6 5 6 6 7 8 7 6 5 5 4 5 8 9 9 9 9 9 9 9 9 9 8 8 9 9 9 9 10 11 11 11 11 11 11 11 12 12 12
6 5 3 1 7 9 9 8 8 8 5 3 5 6 6 6 6 4 5 6 6 7 8 11 10 9 9 8 8 8 8 8 8 8 9 9 9 9 10 11 11 11 11 11 11 11 11 11 11
4 3 2 3 12 11 8 7 6 6 6 5 5 6 6 6 4 6 6 6 7 8 9 11 10 9 9 8 8 8 8 8 8 8 9 9 9 10 11 11 10 10 11 10 10 11 10 10 10
3 2 2 9 12 10 8 7 5 5 5 6 6 8 8 6 7 8 7 6 7 8 9 11 10 9 9 8 8 7 7 7 7 8 8 8 9 10 11 11 10 11 11 10 10 10 9 9 9
2 1 5 10 11 9 8 6 7 9 8 7 7 8 7 6 7 7 7 6 7 8 8 10 11 9 8 8 7 7 7 7 7 7 7 8 9 10 10 10 10 10 10 9 9 9 8 8 8
2 3 8 9 10 10 8 7 7 8 8 7 5 7 7 7 6 6 7 7 7 7 7 8 8 9 9 8 7 6 6 7 6 7 6 7 8 9 9 9 9 9 9 9 8 8 7 7 7
3 1 7 8 9 10 7 6 6 7 8 6 4 5 7 6 6 7 8 7 7 6 6 5 7 7 6 7 8 6 6 6 6 6 6 5 8 9 8 9 9 8 8 8 7 7 7 7 7
2 2 8 9 8 8 7 7 6 6 9 8 7 8 9 8 7 7 8 7 7 6 5 4 5 5 5 5 7 7 7 6 6 6 6 5 5 6 8 8 8 8 7 7 6 7 7 6 7
1 6 9 7 7 7 7 6 6 7 9 9 9 10 10 9 8 7 7 7 6 5 5 4 4 4 4 4 4 4 4 5 4 4 4 4 4 4 6 10 8 7 8 8 7 6 6 4 5
4 6 7 6 7 7 7 7 5 7 8 7 8 10 9 8 7 6 6 6 6 5 5 4 4 3 3 3 3 3 3 3 4 4 3 3 3 4 4 5 7 7 7 6 7 6 4 4 3
5 6 5 5 5 5 6 7 6 7 7 8 9 10 9 8 7 6 6 6 6 5 5 4 4 3 2 2 2 2 2 3 3 4 3 3 2 2 3 2 3 4 4 4 4 4 3 4 3
5 6 6 5 5 6 6 7 7 8 9 9 10 10 9 8 7 6 6 5 5 4 4 4 3 3 2 2 0 2 2 2 4 3 3 2 2 2 3 3 2 3 4 4 3 4 3 3 3
5 6 6 5 6 6 6 6 6 7 8 9 9 9 8 8 7 6 5 4 4 3 3 3 2 3 2 2 1 1 1 2 2 3 3 3 2 2 2 3 2 2 3 3 3 4 3 3 2
4 5 5 5 4 4 3 5 6 8 8 8 8 8 7 7 6 5 5 4 4 3 3 2 2 2 2 1 1 1 2 2 2 2 3 3 3 2 2 2 2 2 3 3 3 3 3 3 3
4 3 3 4 2 2 2 5 7 7 8 8 8 8 7 6 6 5 5 4 3 3 3 2 2 2 2 1 0 1 1 2 2 2 3 3 3 2 2 2 2 2 3 3 3 2 2 2 2
2 2 4 4 2 1 1 4 6 6 6 7 7 8 7 7 6 5 5 4 4 3 3 2 2 2 2 1 1 1 2 1 1 2 2 3 3 2 2 2 2 2 2 2 2 3 2 2 2
2 2 3 3 2 1 1 3 5 6 6 6 7 7 7 6 6 6 5 5 4 4 3 2 3 2 2 1 1 2 1 1 1 2 2 2 2 2 2 2 2 1 2 2 3 3 2 2 2
1 1 2 3 2 1 1 1 4 6 6 6 6 7 7 6 6 6 6 5 5 4 4 3 3 2 2 1 1 1 2 1 2 2 2 2 2 2 2 2 2 1 2 2 2 2 3 2 2
2 1 2 2 2 1 0 1 4 6 6 6 6 7 7 7 7 7 7 6 6 5 4 4 4 3 2 2 1 1 0 1 2 2 2 2 3 3 3 2 2 2 2 2 2 2 2 2 2
3 2 1 1 2 4 3 3 4 6 6 6 6 7 8 8 8 9 8 7 7 6 5 4 4 4 3 2 2 2 2 1 2 2 2 2 3 3 2 2 1 1 2 2 2 2 2 2 2
2 1 2 2 3 0 3 1 3 5 6 7 8 8 8 9 8 8 9 8 7 7 6 5 4 4 4 4 3 2 2 1 1 1 2 2 2 2 3 2 2 2 1 2 3 2 2 2 2
1 1 3 4 4 3 2 3 3 4 4 6 7 8 9 9 9 9 9 8 8 7 6 6 5 5 4 4 4 3 3 2 1 1 2 2 3 2 3 3 2 2 2 2 1 2 2 2 2
4 4 5 6 5 3 1 4 1 2 2 3 5 7 8 9 9 8 8 8 8 7 7 6 6 6 5 5 5 5 4 3 2 2 2 2 2 3 3 3 2 2 2 2 2 2 3 2 1
6 6 4 4 3 1 1 3 2 3 1 2 3 5 7 8 8 8 9 9 8 8 7 7 7 6 6 6 5 5 5 5 4 3 3 2 2 2 2 2 2 2 2 2 2 2 2 2 2
7 7 5 4 3 1 3 1 3 3 2 0 2 5 6 7 8 8 9 9 8 8 8 7 7 6 6 6 6 5 5 4 4 4 3 3 2 2 1 2 2 2 2 2 2 2 2 2 2
6 6 6 7 6 5 1 1 3 2 2 2 3 4 6 7 7 8 9 9 8 8 8 7 7 6 5 5 5 5 5 4 3 3 4 3 2 2 2 2 2 2 2 2 2 1 2 2 2
5 5 5 6 5 6 4 3 0 1 1 2 3 3 4 6 7 7 8 8 8 8 8 7 7 6 5 5 5 5 5 4 4 3 3 2 2 2 2 2 2 2 2 2 2 2 2 2 1
5 6 5 6 7 7 5 0 3 2 1 1 2 2 3 4 6 7 7 7 8 8 7 7 7 6 5 5 5 4 4 4 4 4 4 3 3 3 3 3 2 2 2 2 2 2 3 3 2
6 6 8 7 6 7 7 0 5 3 2 2 2 2 2 2 3 5 6 7 7 7 7 7 7 6 6 5 5 5 5 4 4 4 4 3 3 3 3 3 3 3 3 3 3 3 3 3 3
Wind_Direction
172 175 199 232 227 86 64 61 65 75 71 64 58 54 52 41 33 69 80 88 93 109 122 128 119 118 111 107 106 104 103 102 100 103 105 103 100 103 108 115 115 112 112 114 116 120 122 123 122
170 183 221 243 23 72 68 63 67 65 83 95 76 65 63 60 57 84 95 96 106 113 122 118 116 118 113 109 106 104 103 100 96 95 97 97 93 93 102 112 113 112 112 113 115 118 119 121 122
178 219 261 325 52 57 67 67 77 84 92 86 80 61 54 63 73 80 93 112 111 106 112 115 119 118 115 111 107 105 103 99 96 93 93 92 91 92 98 108 112 112 112 112 114 116 118 122 123
206 222 231 66 66 58 65 76 86 96 81 73 89 82 78 60 65 89 105 110 111 113 113 113 118 117 115 113 108 102 99 97 96 96 93 91 93 95 101 107 110 111 112 110 112 113 116 120 123
241 257 103 77 68 64 67 73 74 77 79 82 87 90 84 70 84 98 106 112 112 109 110 112 117 121 119 111 110 109 103 101 99 101 100 100 100 101 103 104 103 105 109 109 109 111 112 115 119
247 256 72 72 71 71 72 78 85 83 91 90 93 95 84 93 98 101 104 103 104 106 109 113 127 128 123 119 116 113 112 110 108 107 105 108 107 105 107 106 105 106 106 106 108 111 112 119 119
321 45 68 73 75 74 68 72 76 84 86 81 91 95 104 102 100 105 102 102 99 100 105 109 119 126 135 133 120 114 115 115 114 113 110 113 116 115 113 112 112 112 110 108 108 110 114 119 121
306 49 77 70 69 70 76 77 70 76 82 87 80 91 108 110 113 109 105 103 98 93 97 108 109 110 118 120 123 127 125 124 131 130 125 133 133 130 128 128 121 118 115 114 115 119 123 126 128
266 71 67 56 59 73 87 87 83 85 100 90 76 79 105 122 124 118 110 103 93 88 89 98 101 104 114 117 125 137 139 138 152 143 148 159 136 129 133 117 122 123 118 116 117 128 128 139 140
21 59 61 52 59 81 82 83 103 111 102 96 96 98 113 126 125 116 109 107 102 96 94 93 90 98 112 113 120 126 123 125 126 119 133 137 128 123 120 122 127 129 132 133 126 128 143 165 139
55 61 69 71 68 79 87 84 97 108 97 102 115 121 126 128 126 117 106 101 98 103 101 95 93 95 97 103 114 112 116 120 127 122 126 120 132 132 127 133 138 140 149 140 134 145 138 125 110
78 74 77 83 78 79 85 90 85 79 84 106 117 125 131 131 118 110 107 105 104 102 99 94 95 84 75 83 111 127 124 126 124 122 118 116 115 113 111 118 113 122 123 119 124 123 124 112 110
84 86 86 95 96 92 95 91 90 92 103 115 122 127 129 127 120 114 112 112 108 108 104 96 89 94 99 107 111 109 124 130 124 122 121 119 128 119 115 106 110 116 121 131 128 125 120 119 131
87 100 102 104 102 105 101 103 104 102 117 122 128 132 130 125 124 123 124 122 120 117 108 105 100 107 111 119 118 98 123 130 127 121 117 131 132 127 125 130 124 124 127 122 131 126 128 126 118
133 126 115 111 115 120 119 104 102 122 132 133 135 135 135 132 132 132 135 136 129 131 125 120 118 111 113 124 142 135 124 120 130 131 132 139 136 135 142 131 138 123 126 132 138 131 134 142 136
182 165 100 100 112 148 232 94 113 140 146 143 143 143 146 145 143 140 141 143 135 134 138 146 132 124 125 117 164 136 116 119 125 127 129 132 130 141 150 134 126 128 138 130 127 145 128 118 124
182 78 80 103 123 161 259 91 126 155 159 153 156 157 159 157 156 151 149 148 141 142 150 157 149 142 146 158 168 160 138 127 127 122 117 125 138 142 143 129 114 139 115 118 130 111 118 124 121
53 60 71 70 107 192 163 101 133 161 176 166 164 165 169 166 163 162 162 154 150 149 156 167 167 154 163 159 153 154 132 139 130 122 110 125 144 144 142 138 116 120 121 125 123 126 132 141 139
314 28 58 61 101 229 165 151 154 162 179 178 177 174 175 171 162 164 168 168 164 164 169 175 185 165 164 159 168 153 136 135 128 125 119 141 142 133 138 107 114 119 119 125 140 145 150 144 138
238 257 90 113 132 254 234 196 169 171 183 185 184 184 182 178 173 173 179 178 179 176 180 181 191 188 185 162 158 149 111 129 120 113 123 137 141 144 151 148 156 134 150 159 153 156 163 155 159
242 288 344 69 186 204 241 184 172 178 187 191 195 194 190 189 185 182 185 187 186 186 189 191 191 189 190 178 169 151 153 161 136 146 137 138 148 161 166 164 171 170 190 158 166 176 176 171 171
252 297 249 223 241 200 270 324 141 175 189 200 203 203 199 192 192 189 187 190 191 191 189 191 189 190 186 184 190 192 174 159 140 153 130 137 145 163 170 172 183 207 196 171 199 169 194 207 190
282 186 233 250 265 271 232 293 112 156 204 210 208 206 202 195 192 192 191 190 193 191 189 185 186 189 187 188 185 200 206 198 184 155 143 163 155 168 180 181 193 208 213 195 210 188 222 226 245
171 191 210 231 247 260 309 288 62 121 241 225 202 199 200 196 192 191 190 188 191 190 190 187 185 189 189 193 196 202 202 205 205 190 174 185 169 164 170 190 203 218 224 211 211 209 206 225 260
218 241 239 229 231 255 108 274 33 52 4 249 201 189 189 191 192 190 189 188 190 191 191 190 188 191 191 194 200 203 204 203 203 211 192 200 185 169 173 196 206 217 221 222 213 211 213 212 215
232 255 271 285 290 261 174 281 65 56 47 158 175 172 175 182 186 189 189 189 191 190 189 190 189 195 195 195 195 200 203 208 203 198 208 201 211 182 160 189 194 200 207 209 194 202 195 194 218
229 245 276 271 273 276 248 152 138 86 73 102 123 150 168 173 180 183 184 187 188 188 186 188 188 192 196 196 192 195 199 209 201 187 198 202 201 185 182 201 191 187 192 198 201 177 184 183 207
265 253 249 257 263 265 241 227 268 71 77 103 109 132 160 170 176 179 181 185 187 186 183 186 188 193 197 196 199 193 191 196 191 193 190 188 188 193 195 201 190 182 187 188 192 176 163 182 191
203 217 240 255 267 274 272 163 68 69 73 100 114 124 150 171 174 174 176 182 184 184 183 184 187 192 194 197 197 198 190 189 187 186 185 180 183 186 194 190 184 192 197 195 195 192 175 182 184
233 234 230 243 249 261 279 198 90 78 87 84 87 107 124 143 160 167 170 176 182 184 185 185 187 193 195 190 188 191 186 186 186 182 174 174 177 181 178 182 186 204 203 200 197 200 189 188 190
Height
1502 1502 1503 1504 1498 1493 1497 1496 1494 1496 1498 1502 1502 1502 1502 1504 1507 1516 1517 1515 1515 1515 1515 1515 1514 1515 1515 1516 1516 1516 1517 1517 1517 1517 1517 1517 1517 1517 1517 1518 1519 1520 1521 1523 1524 1525 1526 1528 1529
1503 1503 1505 1502 1493 1500 1503 1497 1497 1499 1502 1504 1505 1505 1505 1509 1512 1515 1516 1516 1517 1517 1517 1516 1516 1516 1517 1518 1518 1519 1519 1519 1519 1519 1519 1519 1519 1519 1518 1519 1521 1522 1523 1524 1525 1526 1528 1529 1530
1504 1504 1504 1495 1495 1501 1503 1498 1499 1502 1505 1505 1506 1508 1510 1513 1516 1517 1518 1518 1518 1518 1518 1518 1518 1518 1519 1519 1520 1520 1521 1521 1521 1521 1521 1522 1521 1521 1521 1522 1523 1524 1525 1526 1527 1528 1529 1530 1531
1505 1506 1502 1496 1499 1499 1498 1499 1501 1503 1505 1506 1507 1510 1514 1517 1518 1518 1518 1519 1519 1519 1520 1520 1520 1520 1521 1521 1522 1522 1523 1523 1523 1523 1523 1523 1523 1523 1523 1524 1526 1527 1527 1528 1529 1530 1531 1531 1532
1506 1502 1495 1497 1499 1499 1499 1502 1503 1503 1506 1508 1509 1512 1516 1519 1519 1519 1520 1520 1521 1521 1522 1522 1521 1522 1522 1523 1524 1524 1524 1525 1525 1525 1525 1526 1526 1526 1527 1527 1528 1529 1529 1530 1531 1531 1532 1533 1534
1505 1497 1496 1502 1502 1500 1501 1503 1504 1505 1508 1510 1511 1513 1518 1521 1521 1521 1521 1522 1522 1523 1523 1523 1523 1524 1524 1525 1525 1526 1526 1526 1527 1527 1528 1528 1528 1529 1529 1529 1530 1531 1531 1532 1533 1533 1534 1535 1536
1503 1495 1497 1499 1501 1501 1503 1505 1505 1506 1509 1512 1513 1514 1519 1522 1523 1523 1523 1523 1523 1524 1525 1526 1526 1526 1526 1527 1527 1527 1528 1528 1528 1529 1529 1530 1530 1531 1531 1531 1532 1532 1533 1534 1534 1535 1536 1537 1538
1504 1496 1496 1497 1500 1503 1505 1507 1508 1509 1511 1515 1515 1515 1520 1523 1524 1524 1524 1524 1525 1526 1526 1527 1528 1528 1528 1529 1529 1529 1529 1529 1530 1530 1531 1531 1532 1532 1533 1533 1533 1534 1535 1535 1536 1537 1538 1538 1539
1504 1497 1499 1500 1501 1504 1505 1507 1510 1512 1513 1516 1517 1519 1522 1524 1525 1525 1526 1526 1526 1527 1528 1528 1529 1529 1530 1531 1530 1530 1530 1530 1531 1532 1532 1533 1534 1535 1535 1535 1535 1536 1536 1536 1537 1538 1539 1540 1541
1502 1499 1502 1502 1502 1503 1506 1507 1510 1511 1513 1517 1519 1522 1523 1525 1526 1526 1527 1527 1528 1528 1529 1530 1530 1530 1531 1531 1531 1532 1532 1532 1532 1533 1533 1534 1534 1535 1536 1536 1536 1537 1537 1538 1538 1539 1540 1541 1543
1502 1502 1503 1505 1505 1506 1507 1509 1510 1510 1512 1517 1520 1523 1525 1526 1527 1527 1528 1529 1529 1530 1530 1531 1531 1531 1531 1532 1532 1533 1533 1533 1534 1534 1534 1534 1535 1536 1537 1537 1538 1538 1539 1540 1540 1541 1542 1543 1543
1505 1506 1506 1507 1508 1508 1508 1510 1511 1513 1516 1519 1521 1524 1525 1527 1528 1528 1529 1530 1530 1531 1531 1531 1531 1531 1531 1532 1533 1533 1534 1534 1535 1534 1534 1535 1536 1537 1537 1538 1539 1539 1540 1540 1541 1542 1543 1543 1544
1505 1507 1508 1509 1509 1510 1511 1511 1514 1516 1520 1522 1523 1525 1527 1528 1529 1530 1531 1531 1532 1532 1532 1532 1532 1531 1531 1531 1532 1534 1534 1535 1535 1535 1535 1535 1536 1537 1538 1538 1539 1540 1540 1541 1542 1542 1543 1544 1544
1507 1507 1508 1509 1510 1511 1511 1512 1514 1519 1521 1523 1525 1526 1528 1529 1530 1531 1532 1532 1533 1533 1533 1533 1532 1532 1531 1532 1532 1533 1534 1534 1536 1536 1536 1536 1537 1537 1538 1538 1539 1540 1541 1541 1542 1543 1543 1544 1544
1508 1506 1506 1508 1510 1511 1511 1512 1515 1520 1522 1524 1526 1528 1529 1530 1531 1532 1533 1533 1534 1534 1534 1533 1533 1533 1532 1532 1533 1534 1534 1535 1535 1536 1536 1536 1537 1537 1538 1539 1539 1540 1540 1541 1542 1543 1543 1544 1545
1504 1502 1506 1508 1509 1510 1511 1515 1516 1520 1522 1524 1526 1529 1530 1531 1532 1532 1533 1534 1534 1534 1534 1534 1534 1533 1533 1532 1532 1534 1534 1535 1535 1536 1536 1536 1537 1537 1538 1539 1540 1540 1540 1541 1542 1543 1544 1544 1545
1500 1504 1507 1508 1508 1508 1508 1512 1516 1519 1521 1523 1526 1528 1529 1531 1532 1533 1534 1534 1534 1534 1534 1534 1534 1534 1533 1533 1533 1533 1534 1534 1535 1536 1536 1536 1537 1537 1538 1539 1539 1540 1541 1541 1542 1543 1543 1544 1545
1506 1504 1506 1508 1506 1507 1508 1510 1513 1518 1519 1521 1524 1526 1528 1530 1532 1533 1534 1534 1534 1534 1534 1534 1534 1534 1534 1534 1534 1534 1534 1535 1535 1536 1536 1537 1537 1538 1538 1539 1539 1540 1541 1541 1542 1542 1543 1544 1545
1501 1503 1506 1506 1505 1507 1508 1509 1511 1515 1518 1519 1522 1524 1527 1529 1531 1532 1533 1534 1534 1534 1534 1534 1534 1534 1534 1534 1535 1535 1535 1536 1536 1537 1536 1537 1537 1538 1538 1539 1539 1540 1541 1541 1542 1543 1543 1544 1545
1500 1503 1505 1505 1505 1507 1507 1508 1508 1513 1516 1518 1520 1523 1525 1528 1530 1531 1532 1533 1534 1534 1534 1534 1534 1534 1535 1535 1535 1535 1536 1537 1537 1537 1537 1537 1537 1538 1539 1539 1540 1540 1541 1541 1542 1542 1543 1544 1545
1501 1502 1503 1506 1505 1504 1506 1508 1507 1510 1514 1517 1519 1521 1523 1525 1528 1530 1531 1532 1533 1533 1534 1534 1534 1534 1535 1535 1536 1536 1536 1537 1537 1537 1537 1537 1538 1538 1539 1539 1540 1540 1541 1541 1542 1542 1543 1544 1545
1503 1500 1501 1504 1505 1505 1506 1512 1506 1506 1510 1513 1515 1517 1520 1523 1525 1527 1529 1531 1532 1533 1533 1533 1534 1534 1534 1535 1536 1536 1537 1537 1537 1537 1538 1538 1538 1538 1539 1539 1539 1540 1541 1541 1542 1542 1543 1543 1544
1501 1500 1500 1501 1502 1504 1503 1507 1504 1503 1507 1508 1510 1514 1517 1520 1522 1525 1527 1528 1530 1531 1532 1532 1533 1533 1534 1535 1535 1536 1536 1537 1538 1537 1537 1538 1538 1538 1539 1539 1539 1539 1540 1540 1541 1541 1542 1543 1544
1501 1502 1501 1500 1499 1512 1506 1508 1508 1501 1503 1503 1507 1511 1514 1517 1520 1522 1525 1527 1528 1530 1531 1531 1531 1532 1533 1534 1534 1535 1536 1536 1537 1537 1537 1538 1538 1538 1539 1539 1539 1539 1540 1540 1540 1541 1541 1542 1542
1499 1502 1511 1514 1513 1512 1502 1506 1506 1498 1500 1502 1504 1508 1512 1515 1517 1520 1522 1524 1526 1528 1529 1530 1530 1531 1532 1532 1533 1534 1534 1535 1535 1536 1536 1537 1538 1538 1538 1538 1538 1538 1539 1539 1539 1539 1540 1541 1541
1498 1498 1514 1524 1520 1508 1504 1506 1499 1497 1500 1502 1504 1507 1510 1513 1515 1518 1520 1522 1524 1526 1527 1528 1529 1529 1530 1531 1531 1532 1533 1534 1535 1535 1536 1536 1537 1537 1537 1537 1537 1538 1538 1538 1538 1539 1539 1539 1540
1498 1497 1493 1502 1506 1510 1504 1500 1496 1497 1499 1501 1503 1505 1508 1511 1513 1516 1518 1520 1522 1524 1525 1526 1527 1528 1529 1529 1530 1531 1531 1532 1533 1533 1534 1535 1535 1536 1536 1536 1536 1537 1537 1537 1537 1538 1538 1538 1539
1495 1494 1498 1503 1519 1519 1508 1503 1501 1499 1500 1500 1503 1505 1507 1509 1512 1514 1516 1518 1520 1522 1523 1525 1526 1526 1527 1528 1529 1530 1530 1530 1531 1532 1533 1534 1534 1534 1534 1535 1535 1536 1536 1536 1536 1537 1537 1537 1537
1499 1499 1500 1500 1501 1513 1515 1506 1494 1497 1499 1500 1502 1505 1506 1508 1510 1512 1514 1516 1519 1520 1522 1523 1524 1525 1525 1526 1527 1528 1528 1529 1530 1531 1531 1532 1532 1533 1533 1533 1534 1534 1535 1535 1535 1536 1536 1536 1536
1493 1495 1497 1507 1509 1504 1506 1505 1494 1497 1498 1500 1502 1505 1506 1508 1509 1511 1513 1515 1517 1518 1520 1521 1522 1523 1524 1524 1525 1526 1526 1527 1528 1529 1530 1530 1531 1531 1531 1532 1533 1533 1534 1534 1534 1534 1535 1535 1535